Вернуться в каталог

STARLINK-6321

АктивенСвязьVLEO
NORAD 57340·PAYLOAD·🇺🇸 United States

Запущен Jul 16, 2023 с Cape Canaveral Space Force Station

Loading…

Ближайшие Пролёты (ближайшие 24 часа)

TLE

СвежийSource: CelesTrak SupGP

Эпоха: Sep 14, 2026, 20:59 UTC

1 57340C 23099N   26257.87479167  .00023202  00000+0  84030-3 0  2576
2 57340  43.0015 264.3834 0000746 334.4723  76.7935 15.27570785    12

Отслеживайте STARLINK-6321 в реальном времени с AllMySat

Download on the App Store